Zurück zum Katalog

ARIANE 1 DEB

AktivHEO
NORAD 40781·DEBRIS·🇫🇷 France

Gestartet Dec 24, 1979 von Guiana Space Centre

Loading…

Nächste Überflüge (nächste 24 Stunden)

TLE

AktuellSource: Space-Track

Epoche: Sep 11, 2026, 09:46 UTC

1 40781U 79104AJ  26254.40744373  .00000699  00000-0  28613-2 0  9998
2 40781  19.1016 327.9224 6498825 210.8553  85.2623  3.16840776 26179

Verfolge ARIANE 1 DEB in Echtzeit mit AllMySat

Download on the App Store